Hourly Weather Acu

Today, 7 March, Sunday

Time Temperature Precipitation Wind Pressure Humidity
00:00 +28°C° 0 mm 5 mps 755 mmHg 68%
01:00 +27°C° 0 mm 5 mps 754 mmHg 72%
02:00 +27°C° 0 mm 5 mps 754 mmHg 74%
03:00 +27°C° 0 mm 4 mps 754 mmHg 77%
04:00 +26°C° 0 mm 3 mps 754 mmHg 79%
05:00 +26°C° 0 mm 3 mps 754 mmHg 80%
06:00 +26°C° 0 mm 2 mps 754 mmHg 80%
07:00 +26°C° 0 mm 2 mps 755 mmHg 81%
08:00 +28°C° 0 mm 3 mps 755 mmHg 73%
09:00 +30°C° 0 mm 4 mps 755 mmHg 65%
10:00 +32°C° 0 mm 4 mps 756 mmHg 57%
11:00 +34°C° 0 mm 4 mps 755 mmHg 51%
12:00 +36°C° 0 mm 4 mps 755 mmHg 45%
13:00 +38°C° 0 mm 4 mps 755 mmHg 38%
14:00 +37°C° 0 mm 5 mps 754 mmHg 40%
15:00 +37°C° 0 mm 5 mps 753 mmHg 41%
16:00 +38°C° 0 mm 6 mps 753 mmHg 43%
17:00 +35°C° 0 mm 5 mps 753 mmHg 48%
18:00 +34°C° 0 mm 5 mps 753 mmHg 53%
19:00 +32°C° 0 mm 5 mps 753 mmHg 58%
20:00 +30°C° 0 mm 5 mps 754 mmHg 61%
21:00 +30°C° 0 mm 5 mps 754 mmHg 63%
22:00 +29°C° 0 mm 5 mps 755 mmHg 66%
23:00 +28°C° 0 mm 5 mps 755 mmHg 71%

Tomorrow, 8 March, Monday

Time Temperature Precipitation Wind Pressure Humidity
00:00 +28°C° 0 mm 4 mps 754 mmHg 75%
01:00 +27°C° 0 mm 4 mps 754 mmHg 80%
02:00 +27°C° 0 mm 3 mps 754 mmHg 82%
03:00 +27°C° 0 mm 3 mps 754 mmHg 84%
04:00 +26°C° 0 mm 3 mps 753 mmHg 85%
05:00 +26°C° 0 mm 3 mps 754 mmHg 86%
06:00 +26°C° 0 mm 3 mps 754 mmHg 86%
07:00 +26°C° 0 mm 2 mps 754 mmHg 86%
08:00 +28°C° 0 mm 3 mps 755 mmHg 75%
09:00 +30°C° 0 mm 4 mps 755 mmHg 64%
10:00 +33°C° 0 mm 4 mps 756 mmHg 53%
11:00 +35°C° 0 mm 4 mps 755 mmHg 46%
12:00 +37°C° 0 mm 4 mps 754 mmHg 40%
13:00 +38°C° 0 mm 4 mps 754 mmHg 33%
14:00 +39°C° 0 mm 5 mps 753 mmHg 36%
15:00 +38°C° 0 mm 6 mps 753 mmHg 39%
16:00 +38°C° 0 mm 7 mps 752 mmHg 43%
17:00 +35°C° 0 mm 6 mps 752 mmHg 49%
18:00 +33°C° 0 mm 6 mps 752 mmHg 55%
19:00 +32°C° 0 mm 6 mps 752 mmHg 61%
20:00 +30°C° 0 mm 6 mps 753 mmHg 62%
21:00 +30°C° 0 mm 5 mps 754 mmHg 63%
22:00 +29°C° 0 mm 5 mps 754 mmHg 63%
23:00 +29°C° 0 mm 5 mps 754 mmHg 67%

Day after tomorrow, 9 March, Tuesday

Time Temperature Precipitation Wind Pressure Humidity
00:00 +28°C° 0 mm 5 mps 754 mmHg 70%
01:00 +27°C° 0 mm 4 mps 754 mmHg 73%
02:00 +27°C° 0 mm 4 mps 753 mmHg 76%
03:00 +27°C° 0 mm 3 mps 753 mmHg 78%
04:00 +26°C° 0 mm 2 mps 753 mmHg 81%
05:00 +26°C° 0 mm 2 mps 753 mmHg 81%
06:00 +26°C° 0 mm 2 mps 753 mmHg 82%
07:00 +26°C° 0 mm 2 mps 753 mmHg 82%
08:00 +28°C° 0 mm 3 mps 754 mmHg 73%
09:00 +30°C° 0 mm 3 mps 754 mmHg 64%
10:00 +33°C° 0 mm 4 mps 755 mmHg 55%
11:00 +35°C° 0 mm 4 mps 754 mmHg 49%
12:00 +36°C° 0 mm 4 mps 754 mmHg 44%
13:00 +38°C° 0 mm 4 mps 753 mmHg 38%
14:00 +37°C° 0 mm 5 mps 752 mmHg 41%
15:00 +38°C° 0 mm 6 mps 752 mmHg 44%
16:00 +36°C° 0 mm 6 mps 751 mmHg 47%
17:00 +35°C° 0.2 mm 6 mps 751 mmHg 54%
18:00 +33°C° 0.2 mm 6 mps 752 mmHg 60%
19:00 +30°C° 0.2 mm 6 mps 752 mmHg 66%
20:00 +30°C° 0.1 mm 6 mps 752 mmHg 68%
21:00 +29°C° 0.1 mm 5 mps 753 mmHg 71%
22:00 +29°C° 0.1 mm 5 mps 753 mmHg 74%
23:00 +28°C° 0 mm 5 mps 753 mmHg 76%

10 March, Wednesday

Time Temperature Precipitation Wind Pressure Humidity
00:00 +28°C° 0 mm 4 mps 753 mmHg 78%
01:00 +27°C° 0 mm 4 mps 753 mmHg 81%
02:00 +27°C° 0 mm 3 mps 753 mmHg 83%
03:00 +27°C° 0 mm 3 mps 753 mmHg 86%
04:00 +26°C° 0 mm 2 mps 753 mmHg 88%
05:00 +26°C° 0 mm 2 mps 753 mmHg 89%
06:00 +26°C° 0 mm 2 mps 753 mmHg 89%
07:00 +26°C° 0 mm 2 mps 753 mmHg 90%
08:00 +28°C° 0 mm 3 mps 754 mmHg 78%
09:00 +30°C° 0 mm 3 mps 754 mmHg 66%
10:00 +34°C° 0 mm 4 mps 755 mmHg 54%
11:00 +35°C° 0 mm 4 mps 754 mmHg 49%
12:00 +36°C° 0 mm 4 mps 754 mmHg 45%
13:00 +37°C° 0 mm 4 mps 753 mmHg 41%
14:00 +37°C° 0 mm 5 mps 753 mmHg 44%
15:00 +36°C° 0 mm 5 mps 752 mmHg 46%
16:00 +36°C° 0 mm 5 mps 751 mmHg 48%
17:00 +34°C° 0.6 mm 5 mps 752 mmHg 54%
18:00 +33°C° 0.6 mm 4 mps 752 mmHg 60%
19:00 +30°C° 0.6 mm 4 mps 752 mmHg 66%
20:00 +30°C° 0.1 mm 4 mps 753 mmHg 67%
21:00 +29°C° 0.1 mm 4 mps 753 mmHg 69%
22:00 +29°C° 0.1 mm 4 mps 754 mmHg 70%
23:00 +28°C° 0 mm 4 mps 753 mmHg 74%

11 March, Thursday

Time Temperature Precipitation Wind Pressure Humidity
00:00 +27°C° 0 mm 3 mps 753 mmHg 78%
01:00 +27°C° 0 mm 3 mps 753 mmHg 82%
02:00 +26°C° 0 mm 3 mps 753 mmHg 84%
03:00 +26°C° 0 mm 2 mps 753 mmHg 86%
04:00 +26°C° 0 mm 2 mps 753 mmHg 88%
05:00 +26°C° 0 mm 2 mps 753 mmHg 88%
06:00 +26°C° 0 mm 2 mps 753 mmHg 89%
07:00 +26°C° 0 mm 2 mps 754 mmHg 89%
08:00 +28°C° 0 mm 2 mps 754 mmHg 77%
09:00 +30°C° 0 mm 3 mps 754 mmHg 66%
10:00 +33°C° 0 mm 4 mps 755 mmHg 54%
11:00 +35°C° 0 mm 4 mps 754 mmHg 48%
12:00 +37°C° 0 mm 4 mps 754 mmHg 42%
13:00 +40°C° 0 mm 5 mps 753 mmHg 36%
14:00 +39°C° 0 mm 5 mps 753 mmHg 38%
15:00 +38°C° 0 mm 6 mps 752 mmHg 41%
16:00 +36°C° 0 mm 6 mps 752 mmHg 44%
17:00 +35°C° 0 mm 6 mps 752 mmHg 48%
18:00 +34°C° 0 mm 6 mps 752 mmHg 52%
19:00 +33°C° 0 mm 5 mps 752 mmHg 56%
20:00 +32°C° 0 mm 5 mps 753 mmHg 60%
21:00 +30°C° 0 mm 6 mps 753 mmHg 65%
22:00 +29°C° 0 mm 6 mps 754 mmHg 69%
23:00 +28°C° 0 mm 5 mps 753 mmHg 72%

12 March, Friday

Time Temperature Precipitation Wind Pressure Humidity
00:00 +28°C° 0 mm 4 mps 753 mmHg 76%
01:00 +27°C° 0 mm 3 mps 753 mmHg 79%
02:00 +27°C° 0 mm 3 mps 753 mmHg 81%
03:00 +26°C° 0 mm 2 mps 753 mmHg 83%
04:00 +26°C° 0 mm 2 mps 753 mmHg 85%
05:00 +26°C° 0 mm 2 mps 753 mmHg 85%
06:00 +26°C° 0 mm 1 mps 754 mmHg 85%
07:00 +26°C° 0 mm 1 mps 754 mmHg 85%
08:00 +28°C° 0 mm 2 mps 754 mmHg 75%
09:00 +30°C° 0 mm 3 mps 755 mmHg 64%
10:00 +33°C° 0 mm 3 mps 755 mmHg 54%
11:00 +35°C° 0 mm 3 mps 754 mmHg 47%
12:00 +37°C° 0 mm 4 mps 754 mmHg 40%
13:00 +38°C° 0 mm 4 mps 754 mmHg 33%
14:00 +39°C° 0 mm 5 mps 753 mmHg 37%
15:00 +38°C° 0 mm 6 mps 752 mmHg 41%
16:00 +36°C° 0 mm 7 mps 752 mmHg 44%
17:00 +35°C° 0 mm 6 mps 752 mmHg 50%
18:00 +33°C° 0 mm 6 mps 752 mmHg 56%
19:00 +30°C° 0 mm 5 mps 752 mmHg 61%
20:00 +30°C° 0 mm 5 mps 753 mmHg 63%
21:00 +29°C° 0 mm 5 mps 753 mmHg 65%
22:00 +29°C° 0 mm 5 mps 754 mmHg 67%
23:00 +28°C° 0 mm 4 mps 754 mmHg 71%
Show more